User: anonymous   Login
Location: Unspecified
(0.0000°N, 0.0000°E)
Time: 21:08:41
(UTC+00:00)
Language:

S-NET B - Orbit

View from above orbital plane
View from above orbital plane
View from above satellite
View from above satellite

Ground track
Ground track

The orbit data is extracted from the following two-line orbital elements,

1 43187U 18014H   19047.34005251  .00000093  00000-0  13227-4 0  9999
2 43187  97.7161 317.5164 0012165  58.8816 301.3597 14.96578284 56838
Epoch (UTC): 16 February 2019 08:09:40
Eccentricity: 0.0012165
inclination: 97.7161°
perigee height: 569 km
apogee height: 586 km
right ascension of ascending node: 317.5164°
argument of perigee: 58.8816°
revolutions per day: 14.96578284
mean anomaly at epoch: 301.3597°
orbit number at epoch: 5683

The dashed part of the orbit path shows where the satellite is in the earth's shadow,  

DLR